DELTA 1 DEB, 7846

Orbit data source: Space-Track

DELTA 1 DEB, 7846 is space debris in SSO originally from a launch on Sun, 23 Jul 1972 UTC launched from the Air Force Western Test Range (AFWTR). Debris objects in space refer to the collection of defunct objects orbiting the Earth. Examples of debris include non-operational satellites, rocket bodies, and fragments generated from explosions, collisions, or faulty payload assembly.

Loading next visibility...
Identifier
7846, 1972-058S
Orbit
SSO
Country
Flag of USUS
Related business
Manufacturer
Unknown
Mission
Spacecraft
Bus & Motor
Unknown
Mass
Unknown
Launch date (UTC)
1972-07-23 (54 years ago)
Launch vehicle
Unknown
Launch site
Air Force Western Test Range (AFWTR)
Object type
Payload
Rocket body
Debris
Shape & HBR
Unknown shape, 0.5 m
Radar Cross Section
Medium (>0.1 m² and <1 m²)

Expand to show TLE details & history
Last TLE update: 1 week ago

TLE from 1 week ago
0 DELTA 1 DEB
1 07846U 72058S   26155.09844460  .00000443  00000-0  10808-3 0  9992
2 07846  98.5879 235.3107 0145974 272.5271  85.9220 14.51923558666197
Epoch: 2026-06-04T02:21Z
TLE epoch observation values (Epoch: 2026-06-04T02:21:45.613Z)
Latitude
-0.00002°
Longitude
-52.67694°
Altitude
716.473 km
Speed
7.5 km/s
True Right ascension
15h 41m 14s
True Declination
0° 00' 00"
Sunlit
Object was in full shadow at epoch
Visualization orbit readout
Latitude
Unknown
Longitude
Unknown
Altitude
Unknown
Speed
Unknown
Apparent Right ascension
Unknown
Apparent Declination
Unknown
Sunlit
N/A
Visualization observer readout
Local Sidereal Time
07:03:27
Azimuth
Unknown
Elevation
Unknown
Doppler factor
Unknown
Orbital elements
Apogee altitude
820.045 km
Perigee altitude
612.919 km
Semi-major axis
7,094.619 km
Eccentricity
0.0146
Inclination
98.5879°
RAAN
235.3107°
Arg. of periapsis
272.5271°
True anomaly
87.59243°
Mean anomaly
85.922°
Eccentric anomaly
86.75703°
Mean motion
3.63203 °/min
Orbital period
99.12 mins
BSTAR
0.00010808
Loading maneuver chart data...
Computing Atmospheric mass density...
Loading historical data...
Loading historical data...
Loading historical data...
Loading historical data...
Loading historical data...
Loading historical data...
Loading historical data...

Documentation

Showing up to 5 results
|